| time (UTC) | temp F | wind direction | speed MPH | gust MPH | rain 1hr in | rain 24hr in | rain mn in | humidity % | barometer mb |
| 20260507081519 | 48 | 34 | 2.0 | 5.0 | 0.00 | 0.00 | 0.00 | 43 | 1008.1 |
| 20260507080008 | 48 | 46 | 0.0 | 2.0 | 0.00 | 0.00 | 0.00 | 43 | 1007.9 |
| 20260507074508 | 48 | 46 | 0.0 | 2.0 | 0.00 | 0.00 | 0.00 | 42 | 1008.0 |
| 20260507073007 | 49 | 60 | 0.0 | 4.0 | 0.00 | 0.00 | 0.00 | 40 | 1007.9 |
| 20260507071501 | 50 | 98 | 2.0 | 8.0 | 0.00 | 0.00 | 0.00 | 38 | 1007.9 |
| 20260507064557 | 52 | 76 | 2.0 | 7.0 | 0.00 | 0.00 | 0.00 | 39 | 1007.7 |
| 20260507063053 | 52 | 79 | 5.0 | 10.0 | 0.00 | 0.00 | 0.00 | 39 | 1007.9 |
| 20260507061550 | 53 | 49 | 4.0 | 6.0 | 0.00 | 0.00 | 0.00 | 43 | 1008.2 |
| 20260507060054 | 54 | 61 | 4.0 | 9.0 | 0.00 | 0.00 | 0.00 | 37 | 1007.9 |
| 20260507054549 | 55 | 50 | 5.0 | 15.0 | 0.00 | 0.00 | 0.00 | 37 | 1007.9 |
| 20260507053051 | 56 | 96 | 7.0 | 13.0 | 0.00 | 0.00 | 0.00 | 34 | 1007.6 |
| 20260507051545 | 56 | 94 | 4.0 | 8.0 | 0.00 | 0.00 | 0.00 | 33 | 1007.4 |
| 20260507050042 | 56 | 103 | 8.0 | 12.0 | 0.00 | 0.00 | 0.00 | 33 | 1007.4 |
| 20260507044554 | 56 | 99 | 6.0 | 10.0 | 0.00 | 0.00 | 0.00 | 33 | 1007.6 |
| 20260507043041 | 57 | 123 | 1.0 | 8.0 | 0.00 | 0.00 | 0.00 | 33 | 1007.5 |
| 20260507041541 | 57 | 93 | 3.0 | 7.0 | 0.00 | 0.00 | 0.00 | 33 | 1007.4 |
| 20260507040040 | 56 | 139 | 2.0 | 3.0 | 0.00 | 0.00 | 0.00 | 35 | 1007.5 |
| 20260507034542 | 57 | 162 | 1.0 | 5.0 | 0.00 | 0.00 | 0.00 | 34 | 1007.4 |
| 20260507033039 | 58 | 71 | 5.0 | 7.0 | 0.00 | 0.00 | 0.00 | 31 | 1007.1 |
| 20260507031539 | 59 | 80 | 4.0 | 9.0 | 0.00 | 0.00 | 0.00 | 30 | 1006.9 |
| 20260507030038 | 60 | 103 | 5.0 | 11.0 | 0.00 | 0.00 | 0.00 | 29 | 1006.6 |
| 20260507024542 | 60 | 108 | 5.0 | 10.0 | 0.00 | 0.00 | 0.00 | 28 | 1006.6 |
| 20260507023036 | 62 | 98 | 6.0 | 10.0 | 0.00 | 0.00 | 0.00 | 27 | 1006.6 |
| 20260507021536 | 63 | 84 | 6.0 | 9.0 | 0.00 | 0.00 | 0.00 | 26 | 1006.8 |
| 20260507020045 | 64 | 89 | 5.0 | 8.0 | 0.00 | 0.00 | 0.00 | 26 | 1006.7 |
| 20260507014536 | 66 | 98 | 6.0 | 8.0 | 0.00 | 0.00 | 0.00 | 24 | 1006.7 |
| 20260507013033 | 67 | 105 | 4.0 | 8.0 | 0.00 | 0.00 | 0.00 | 23 | 1006.8 |
| 20260507011530 | 67 | 96 | 2.0 | 5.0 | 0.00 | 0.00 | 0.00 | 22 | 1006.9 |
| 20260507010029 | 68 | 98 | 2.0 | 7.0 | 0.00 | 0.00 | 0.00 | 22 | 1007.2 |
| 20260507004531 | 68 | 85 | 6.0 | 9.0 | 0.00 | 0.00 | 0.00 | 23 | 1007.2 |
| 20260507003029 | 68 | 66 | 2.0 | 7.0 | 0.00 | 0.00 | 0.00 | 22 | 1007.3 |
| 20260507001534 | 68 | 25 | 3.0 | 8.0 | 0.00 | 0.00 | 0.00 | 22 | 1007.6 |
| 20260507000121 | 68 | 348 | 4.0 | 11.0 | 0.00 | 0.00 | 0.00 | 21 | 1007.7 |
| 20260506234517 | 69 | 5 | 0.0 | 9.0 | 0.00 | 0.00 | 0.00 | 21 | 1007.9 |
| 20260506233014 | 69 | 306 | 3.0 | 9.0 | 0.00 | 0.00 | 0.00 | 21 | 1008.0 |
| 20260506231513 | 69 | 334 | 4.0 | 13.0 | 0.00 | 0.00 | 0.00 | 21 | 1008.2 |
| 20260506230007 | 69 | 355 | 5.0 | 11.0 | 0.00 | 0.00 | 0.00 | 20 | 1008.5 |
| 20260506224504 | 68 | 254 | 4.0 | 8.0 | 0.00 | 0.00 | 0.00 | 20 | 1008.9 |
| 20260506223001 | 68 | 333 | 7.0 | 12.0 | 0.00 | 0.00 | 0.00 | 20 | 1009.2 |
| 20260506221558 | 67 | 265 | 4.0 | 10.0 | 0.00 | 0.00 | 0.00 | 21 | 1009.6 |
| 20260506220057 | 67 | 291 | 5.0 | 10.0 | 0.00 | 0.00 | 0.00 | 23 | 1009.9 |
| 20260506214608 | 67 | 253 | 3.0 | 9.0 | 0.00 | 0.00 | 0.00 | 21 | 1010.2 |
| 20260506213049 | 65 | 227 | 2.0 | 8.0 | 0.00 | 0.00 | 0.00 | 22 | 1010.4 |
| 20260506211547 | 64 | 321 | 4.0 | 11.0 | 0.00 | 0.00 | 0.00 | 21 | 1010.7 |
| 20260506210049 | 64 | 262 | 7.0 | 12.0 | 0.00 | 0.00 | 0.00 | 22 | 1010.9 |
| 20260506204543 | 63 | 290 | 5.0 | 8.0 | 0.00 | 0.00 | 0.00 | 22 | 1011.3 |
| 20260506203045 | 62 | 232 | 5.0 | 11.0 | 0.00 | 0.00 | 0.00 | 22 | 1011.7 |
| 20260506201537 | 63 | 232 | 5.0 | 10.0 | 0.00 | 0.00 | 0.00 | 22 | 1012.0 |
| 20260506200035 | 61 | 229 | 5.0 | 12.0 | 0.00 | 0.00 | 0.00 | 22 | 1012.3 |
| 20260506194532 | 60 | 234 | 2.0 | 9.0 | 0.00 | 0.00 | 0.00 | 22 | 1012.6 |
| 20260506193029 | 59 | 188 | 5.0 | 14.0 | 0.00 | 0.00 | 0.00 | 24 | 1012.8 |
| 20260506191533 | 59 | 138 | 1.0 | 15.0 | 0.00 | 0.00 | 0.00 | 25 | 1013.0 |
| 20260506190024 | 59 | 234 | 5.0 | 13.0 | 0.00 | 0.00 | 0.00 | 24 | 1013.6 |
| 20260506184526 | 58 | 222 | 6.0 | 13.0 | 0.00 | 0.00 | 0.00 | 24 | 1013.9 |
| 20260506183016 | 56 | 207 | 6.0 | 13.0 | 0.00 | 0.00 | 0.00 | 24 | 1014.2 |
| 20260506181514 | 56 | 218 | 9.0 | 17.0 | 0.00 | 0.00 | 0.00 | 24 | 1014.4 |
| 20260506180017 | 54 | 185 | 7.0 | 16.0 | 0.00 | 0.00 | 0.00 | 28 | 1014.7 |
| 20260506174507 | 54 | 166 | 4.0 | 10.0 | 0.00 | 0.00 | 0.00 | 29 | 1015.0 |
| 20260506173005 | 53 | 192 | 5.0 | 16.0 | 0.00 | 0.00 | 0.00 | 28 | 1015.4 |
| 20260506171506 | 53 | 192 | 7.0 | 13.0 | 0.00 | 0.00 | 0.00 | 32 | 1015.8 |
| 20260506164601 | 50 | 202 | 8.0 | 17.0 | 0.00 | 0.00 | 0.00 | 36 | 1016.1 |
| 20260506163058 | 50 | 234 | 8.0 | 14.0 | 0.00 | 0.00 | 0.00 | 39 | 1016.4 |
| 20260506161553 | 48 | 196 | 8.0 | 13.0 | 0.00 | 0.00 | 0.00 | 43 | 1016.8 |
| 20260506160044 | 47 | 235 | 7.0 | 14.0 | 0.00 | 0.00 | 0.00 | 45 | 1016.9 |
| 20260506154547 | 46 | 226 | 7.0 | 13.0 | 0.00 | 0.00 | 0.00 | 47 | 1017.3 |
| 20260506153038 | 45 | 223 | 7.0 | 11.0 | 0.00 | 0.00 | 0.00 | 46 | 1017.6 |
| 20260506151537 | 43 | 193 | 5.0 | 10.0 | 0.00 | 0.00 | 0.00 | 47 | 1017.8 |
| 20260506150029 | 41 | 221 | 6.0 | 9.0 | 0.00 | 0.00 | 0.00 | 45 | 1018.2 |
| 20260506144527 | 41 | 192 | 6.0 | 10.0 | 0.00 | 0.00 | 0.00 | 46 | 1018.3 |
| 20260506143023 | 40 | 206 | 5.0 | 10.0 | 0.00 | 0.00 | 0.00 | 47 | 1018.3 |
| 20260506141519 | 38 | 204 | 5.0 | 7.0 | 0.00 | 0.00 | 0.00 | 48 | 1018.4 |
| 20260506140021 | 35 | 209 | 4.0 | 7.0 | 0.00 | 0.00 | 0.00 | 52 | 1018.6 |
| 20260506134513 | 34 | 207 | 5.0 | 8.0 | 0.00 | 0.00 | 0.00 | 53 | 1018.6 |
| 20260506133007 | 33 | 196 | 3.0 | 7.0 | 0.00 | 0.00 | 0.00 | 56 | 1018.6 |
| 20260506131510 | 31 | 227 | 4.0 | 8.0 | 0.00 | 0.00 | 0.00 | 58 | 1018.7 |
| 20260506124558 | 27 | 286 | 1.0 | 5.0 | 0.00 | 0.00 | 0.00 | 65 | 1018.7 |
| 20260506123057 | 25 | 263 | 1.0 | 4.0 | 0.00 | 0.00 | 0.00 | 66 | 1018.8 |
| 20260506121555 | 24 | 279 | 0.0 | 1.0 | 0.00 | 0.00 | 0.00 | 68 | 1018.9 |
| 20260506120054 | 23 | 279 | 0.0 | 2.0 | 0.00 | 0.00 | 0.00 | 68 | 1018.9 |
| 20260506114558 | 22 | 279 | 0.0 | 2.0 | 0.00 | 0.00 | 0.00 | 67 | 1019.1 |
| 20260506113053 | 23 | 283 | 1.0 | 3.0 | 0.00 | 0.00 | 0.00 | 67 | 1019.2 |
| 20260506111551 | 23 | 284 | 2.0 | 3.0 | 0.00 | 0.00 | 0.00 | 67 | 1019.3 |
| 20260506110047 | 23 | 277 | 1.0 | 3.0 | 0.00 | 0.00 | 0.00 | 67 | 1019.4 |
| 20260506104554 | 22 | 277 | 1.0 | 4.0 | 0.00 | 0.00 | 0.00 | 67 | 1019.5 |
| 20260506103043 | 23 | 277 | 1.0 | 3.0 | 0.00 | 0.00 | 0.00 | 65 | 1019.5 |
| 20260506101549 | 22 | 281 | 2.0 | 3.0 | 0.00 | 0.00 | 0.00 | 65 | 1019.6 |
| 20260506100041 | 22 | 277 | 1.0 | 3.0 | 0.00 | 0.00 | 0.00 | 67 | 1019.8 |
| 20260506094539 | 21 | 257 | 0.0 | 3.0 | 0.00 | 0.00 | 0.00 | 66 | 1019.9 |
| 20260506093036 | 22 | 293 | 1.0 | 4.0 | 0.00 | 0.00 | 0.00 | 65 | 1020.0 |
| 20260506091535 | 22 | 276 | 2.0 | 5.0 | 0.00 | 0.00 | 0.00 | 66 | 1020.1 |
| 20260506090035 | 21 | 303 | 0.0 | 4.0 | 0.00 | 0.00 | 0.00 | 65 | 1020.1 |
| 20260506084538 | 22 | 290 | 0.0 | 4.0 | 0.00 | 0.00 | 0.00 | 64 | 1020.1 |
| 20260506083032 | 23 | 287 | 1.0 | 4.0 | 0.00 | 0.00 | 0.00 | 64 | 1020.1 |